Weather History for North Adams, MA

Change the Weather History Date:

Sunday, February 3, 2013

  Actual Average Record
Temperature  
Mean Temperature 18 °F -  
Max Temperature 27 °F 32 °F 52 °F (2006)
Min Temperature 8 °F 14 °F -2 °F (2011)
Degree Days  
Heating Degree Days 48    
Moisture  
Dew Point 8 °F    
Average Humidity 70    
Maximum Humidity 84    
Minimum Humidity 43    
Precipitation  
Precipitation 0.00 in - - ()
Sea Level Pressure  
Sea Level Pressure 29.90 in    
Wind  
Wind Speed 0 mph (WSW)    
Max Wind Speed 6 mph    
Max Gust Speed -    
Visibility 9 miles    
Events Snow    
Averages and records for this station are not official NWS values.
T = Trace of Precipitation, MM = Missing Value Source: NWS Daily Summary

Daily Weather History Graph

Daily Weather History Graph

Search for Another Location

Airport:

Trip Planner

Search our weather history database for the weather conditions in past years. The results will help you decide how hot, cold, wet, or windy it might be!

Date:

Astronomy

Feb. 03, 2013 Rise Set
Actual Time 7:04 AM EST 5:09 PM EST
Civil Twilight 6:34 AM EST 5:38 PM EST
Nautical Twilight 6:01 AM EST 6:12 PM EST
Astronomical Twilight 5:28 AM EST 6:45 PM EST
Moon 12:29 AM EST (2/3) 10:43 AM EST (2/3)
Length of Visible Light 11h 04m
Length of Day
10h 04m
Waning Gibbous, 49% of the Moon is Illuminated
Feb 3
Waning Gibbous
Feb 10
New
Feb 17
First Quarter
Feb 25
Full
Mar 4
Last Quarter

Hourly Weather History & Observations

Time (EST) Temp. Windchill Dew Point Humidity Pressure Visibility Wind Dir Wind Speed Gust Speed Precip Events Conditions
12:04 AM 17.6 °F - 12.2 °F 79% 30.01 in 2.5 mi Calm Calm - 0.00 in Snow Light Snow
12:11 AM 17.6 °F - 12.2 °F 79% 30.01 in 3.0 mi Calm Calm - 0.00 in Snow Light Snow
12:45 AM 17.6 °F - 12.2 °F 79% 30.00 in 5.0 mi Calm Calm - 0.00 in   Haze
12:52 AM 17.1 °F - 12.0 °F 81% 30.04 in 6.0 mi Calm Calm - 0.00 in   Haze
1:10 AM 17.6 °F - 12.2 °F 79% 30.00 in 8.0 mi Calm Calm - N/A   Overcast
1:52 AM 15.1 °F - 9.0 °F 77% 30.03 in 10.0 mi Calm Calm - N/A   Overcast
2:52 AM 14.0 °F - 10.0 °F 84% 30.01 in 10.0 mi Calm Calm - N/A   Overcast
4:52 AM 12.9 °F - 8.1 °F 81% 29.98 in 9.0 mi Calm Calm - N/A   Overcast
5:52 AM 10.0 °F - 5.0 °F 80% 29.97 in 10.0 mi Calm Calm - N/A   Overcast
6:52 AM 9.0 °F - 3.9 °F 80% 29.97 in 10.0 mi Calm Calm - N/A   Overcast
7:52 AM 8.1 °F - 3.0 °F 80% 29.97 in 10.0 mi Calm Calm - N/A   Overcast
8:52 AM 14.0 °F - 9.0 °F 80% 29.97 in 10.0 mi Calm Calm - N/A   Overcast
9:52 AM 17.1 °F - 8.1 °F 68% 29.96 in 10.0 mi Calm Calm - N/A   Overcast
10:52 AM 21.9 °F 14.5 °F 7.0 °F 53% 29.93 in 10.0 mi ENE 5.8 mph - N/A   Mostly Cloudy
11:52 AM 24.1 °F - 7.0 °F 48% 29.88 in 10.0 mi Calm Calm - N/A   Overcast
12:52 PM 25.0 °F - 6.1 °F 45% 29.85 in 10.0 mi Calm Calm - N/A   Overcast
1:52 PM 25.0 °F 20.7 °F 8.1 °F 49% 29.82 in 10.0 mi WSW 3.5 mph - N/A   Overcast
2:52 PM 27.0 °F - 7.0 °F 43% 29.80 in 10.0 mi Calm Calm - N/A   Scattered Clouds
3:52 PM 26.1 °F - 6.1 °F 43% 29.79 in 10.0 mi Calm Calm - N/A   Clear
4:52 PM 23.0 °F 18.4 °F 8.1 °F 53% 29.79 in 10.0 mi West 3.5 mph - N/A   Scattered Clouds
5:52 PM 17.1 °F 11.7 °F 9.0 °F 71% 29.79 in 10.0 mi SW 3.5 mph - N/A   Clear
6:52 PM 15.1 °F - 7.0 °F 70% 29.80 in 10.0 mi Calm Calm - N/A   Clear
7:52 PM 12.0 °F - 6.1 °F 77% 29.80 in 10.0 mi Calm Calm - N/A   Clear
8:52 PM 12.9 °F - 7.0 °F 77% 29.81 in 10.0 mi Calm Calm - N/A   Overcast
9:52 PM 16.0 °F - 9.0 °F 74% 29.79 in 10.0 mi Calm Calm - N/A   Mostly Cloudy
10:52 PM 15.1 °F - 9.0 °F 77% 29.78 in 10.0 mi Calm Calm - N/A   Mostly Cloudy
11:52 PM 16.0 °F - 10.0 °F 77% 29.78 in 8.0 mi Calm Calm - N/A   Overcast